www.pogodaiklimat.ru

Погода и климат >> Архив погоды >> Аргентина >> Эсейса


ПОГОДА в Эсейсе

  • Прогноз погоды в Эсейсе
  • Монитор погоды в Эсейсе

АРХИВ ПОГОДЫ в Эсейсе

Время (UTC), дата Ветер
(напр.,м/с)
 
Видим.   Явления Облачность Т
(С)
Тd
(С)
f
(%)
Тe
(С)
Тes
(С)
Комфортность P
(гПа)
Po
(гПа)
Тmin
(С)
Tmax
(С)
R
(мм)
R24
(мм)
S
(см)
06 9.01 СВ 4 10 км 4/1 1500 м
[Sc Ac cast]
+26.1 +21.7 77 +34 +34 очень
душно
1004.3 1002.0
09 9.01 СЗ 3 10 км 5/5 1110 м
[Cu Sc]
+25.3 +21.4 79 +32 +32 очень
душно
1005.8 1003.4
12 9.01 ЮЗ 3 10 км {дождь} 6/0
[Ac As Cs]
+22.6 +18.5 78 +28 +33 душно 1005.7 1003.4 +20.0 +28.0 0.5
15 9.01 З 4 10 км 9/0
[Ac cast Cs]
+25.7 +19.6 69 +31 +37 очень
душно
1006.1 1003.8
18 9.01 Ю 3 10 км 8/1 1500 м
[Cu hum Ac cast Cs]
+27.1 +17.2 55 +31 +39 душно 1005.0 1002.6
21 9.01 Ю 3 10 км 10/6 1140 м
[Cu Sc Ac As]
+25.7 +18.4 64 +30 +31 душно 1006.9 1004.6
00 10.01 Ю 3 10 км 8/0 1500 м
[Ac As Cs]
+23.2 +17.5 70 +29 +29 душно 1009.1 1006.8 +22.2 +27.6
03 10.01 ЮВ 4 10 км 9/0
[Ac As Cs]
+22.0 +18.2 79 +27 +27 душно 1010.1 1007.8
06 10.01 ЮВ 4 10 км 8/0
[Ac As Cs]
+20.1 +18.0 88 +23 +23 комфорт 1009.8 1007.4
09 10.01 ЮВ 4 10 км 9/0
[Ac As Cs]
+18.7 +15.7 83 +20 +20 1011.0 1008.6
12 10.01 Ю 2 10 км 10/0 1500 м
[Ac As]
+18.9 +15.2 79 +21 +23 комфорт 1014.4 1012.0 +17.5 +23.2
15 10.01 Ю 3 10 км 10/6 840 м
[Sc Ac As]
+21.2 +15.2 69 +24 +26 комфорт 1015.2 1012.9
18 10.01 Ю 5 10 км {дождь} 9/6 800 м
[Sc Ac As]
+21.9 +15.6 67 +26 +27 душно 1015.6 1013.2 0.3
21 10.01 Ю 4 10 км 10/3 900 м
[Sc Ac As]
+20.0 +14.4 70 +22 +23 комфорт 1016.4 1014.0
00 11.01 Ю 5 10 км 3/3 870 м
[Sc]
+17.7 +12.4 71 +17 +17 1017.9 1015.6 +17.6 +22.1
03 11.01 ЮВ 2 10 км ясно +14.2 +11.6 84 +14 +14 1020.3 1018.0
06 11.01 Ю 1 10 км ясно +11.5 +10.7 95 +11 +11 1020.2 1017.8
09 11.01 ЮЗ 2 6000 м местами туман поземный туман 3/0
[Cs]
+9.8 +9.2 96 +8 +8 1020.7 1018.4
12 11.01 ЮВ 1 10 км {туман} 1/0
[Cs]
+17.4 +11.0 66 +18 +28 1021.3 1018.9 +9.0 +17.6 0.3
15 11.01 В 3 10 км ясно +22.5 +5.9 34 +23 +39 комфорт 1020.7 1018.4
18 11.01 ЮВ 3 10 км ясно +25.3 +6.5 30 +25 +39 комфорт 1018.8 1016.4
21 11.01 В 5 10 км ясно +23.9 +7.8 36 +24 +26 комфорт 1017.6 1015.2
00 12.01 В 3 10 км ясно +19.8 +8.9 49 +21 +21 комфорт 1017.5 1015.2 +17.1 +26.6
03 12.01 В 2 10 км 3/0
[Ci fib]
+17.2 +11.8 71 +18 +18 1017.6 1015.2
06 12.01 В 3 10 км 4/0
[Ci fib]
+16.3 +12.9 80 +16 +16 1016.2 1013.8
09 12.01 С 3 10 км 8/0
[Ac As]
+20.1 +15.8 76 +23 +23 комфорт 1016.4 1014.1
12 12.01 С 3 10 км 4/0
[Ac As]
+23.3 +17.1 68 +28 +34 душно 1016.7 1014.4 +16.1 +23.2
15 12.01 СВ 4 10 км 6/6 1080 м
[Cu hum]
+26.1 +16.7 56 +30 +36 душно 1015.9 1013.6
18 12.01 СВ 5 10 км 1/1 1500 м
[Cu hum]
+28.1 +13.7 41 +30 +39 жарко 1014.1 1011.8
21 12.01 СВ 5 10 км 3/0
[Ac und Cs]
+28.5 +17.4 51 +33 +34 очень
душно
1012.5 1010.2
00 13.01 В 4 10 км 1/0
[Ac cast Ci fib]
+24.2 +16.1 61 +28 +28 душно 1012.7 1010.4 +23.0 +29.0
03 13.01 В 2 10 км 1/0
[Ac trans]
+22.5 +18.4 78 +28 +28 душно 1013.8 1011.4
06 13.01 В 2 10 км 5/5 1230 м
[Sc Ac cast]
+22.5 +20.5 88 +29 +29 очень
душно
1012.4 1010.1
09 13.01 С 4 10 км 9/4 630 м
[Sc Ac As Cs]
+23.5 +20.1 81 +29 +29 душно 1012.5 1010.2
12 13.01 Ю 1 9000 м слаб. дождь 10/4 540 м
[Cu Sc Ac As]
+22.0 +21.1 95 +28 +30 душно 1015.1 1012.8 +21.2 +24.6 0.2
15 13.01 2 8000 м слаб. морось {дождь} 10/10 240 м
[St]
+23.1 +21.5 91 +31 +31 очень
душно
1012.3 1010.0
18 13.01 В 5 10 км {дождь, морось} 10/5 500 м
[Cu Sc As trans]
+24.7 +20.1 76 +30 +32 очень
душно
1012.2 1009.8 1
21 13.01 В 3 10 км 4/1 1500 м
[Cu med, cong Ac trans Cs]
+26.1 +18.3 62 +31 +33 очень
душно
1011.9 1009.6
00 14.01 С 2 10 км 8/4 870 м
[Cu med, cong Ac cast Cs]
+24.5 +19.1 72 +29 +29 душно 1013.5 1011.2 +21.9 +26.7
03 14.01 ЮВ 3 10 км 3/0
[Ac cast Cc]
+21.9 +20.1 90 +28 +28 душно 1013.7 1011.4
06 14.01 Ю 2 10 км 10/10 120 м
[St]
+20.3 +19.4 95 +25 +25 комфорт 1013.4 1011.0
09 14.01 Ю 2 500 м туман 10/10 60 м
[St]
+20.2 +20.0 99 +25 +25 комфорт 1013.0 1010.6
12 14.01 Ю 3 10 км {туман} 9/9 240 м
[St]
+22.6 +20.6 88 +29 +30 очень
душно
1013.9 1011.6 +19.4 +24.5 1
15 14.01 ЮВ 3 10 км 5/5 960 м
[Cu Sc]
+27.6 +19.4 61 +33 +42 очень
душно
1013.5 1011.2
18 14.01 В 6 10 км 6/6 1410 м
[Cu med, cong Cc]
+28.3 +20.4 62 +35 +38 очень
душно
1012.4 1010.1
21 14.01 В 5 9000 м слаб. дождь 9/9 800 м
[Cu Sc]
+25.2 +20.8 77 +32 +32 очень
душно
1011.7 1009.4
00 15.01 В 4 10 км в посл. час ливневой дождь 9/6 660 м
[Sc diur, vesp Ac As]
+24.2 +20.2 78 +30 +30 очень
душно
1012.7 1010.4 +22.4 +29.9 0.0
03 15.01 ЮВ 4 10 км в посл. час ливневой дождь 8/1 450 м
[St Ac As]
+21.3 +19.4 89 +26 +26 душно 1012.0 1009.7
06 15.01 В 3 10 км {ливн. осадки} 8/3 450 м
[St Ac As Cs]
+20.9 +19.3 91 +26 +26 душно 1011.6 1009.3 0.0
09 15.01 Ю 2 8000 м дымка 10/6 540 м
[St Ac As Cs]
+20.0 +19.2 95 +24 +24 комфорт 1011.0 1008.6
12 15.01 ЮВ 3 5000 м слаб. дождь туман 10/4 1050 м
[Frnb As op]
+21.1 +20.3 95 +26 +27 душно 1010.5 1008.2 +19.5 +24.2 0.0
15 15.01 ЮВ 4 5000 м дождь {морось} туман 10/6 180 м
[Frnb As op]
+22.5 +21.9 96 +30 +31 очень
душно
1009.9 1007.6
18 15.01 Ю 3 5000 м в посл. час дождь {морось} туман 10/9 420 м
[Frnb As op]
+23.3 +22.3 94 +32 +32 очень
душно
1008.9 1006.6 5
21 15.01 Ю 3 7000 м дождь {морось} туман 10/9 210 м
[Frnb As op]
+19.9 +19.1 95 +23 +23 комфорт 1008.2 1005.8
00 16.01 ЮВ 2 10 км {дождь, морось} 4/1 210 м
[St Ac As]
+19.9 +19.3 96 +24 +24 комфорт 1007.5 1005.2 +19.5 +24.5 14
03 16.01 ЮЗ 1 3000 м местами туман поземный туман 3/3 60 м
[St]
+18.8 +18.6 99 +21 +21 комфорт 1008.9 1006.6

 

Местоположение метеостанции Эсейса (Аргентина): широта -34.81 долгота -58.53 высота над уровнем моря 20 м.

В архиве по умолчанию представлена погода в Эсейсе за последнюю неделю. Архивные данные за месяц целиком и за предыдущие месяцы, начиная с января 2011 года, Вы можете получить, выбрав интересующий диапазон дат из раскрывающегося списка и нажав кнопку "Ввод!".


*Определитесь, кто Вы:
робот инопланетянин человек

Внимание! Время в таблицах - всемирное. Для получения местного времени необходимо прибавить поправку, которая равна -3 ч.

Смотрите также архив погоды в соседних городах и на ближайших метеорологических станциях:

Погода в Буэнос-Айресе (Аргентина) (26 км)
Погода в Буэнос-Айресе аэропорт (Аргентина) (30 км)
Погода в Ла-Плате (Аргентина) (60 км)
Погода в Колонии (Уругвай) (76 км)
Погода в Лас Флоресе (Аргентина) (149 км)
Погода в Мерседесе (Уругвай) (179 км)
Погода в Долоресе (Аргентина) (183 км)
Погода в Гуалегуайчу (Аргентина) (201 км)
Погода в Мелилье (Уругвай) (208 км)
Погода в Прадо (Уругвай) (213 км)

Пояснения к столбцам:

Ветер - указаны скорость ветра в м/с - средняя за 10 мин, порывы в срок и между сроками (в фигурных скобках) и направление, откуда дует ветер: С - северный, СВ - северо-восточный, В - восточный, ЮВ - юго-восточный, Ю - южный, ЮЗ - юго-западный, З - западный, СЗ - северо-западный.
Видимость - горизонтальная дальность видимости в метрах или километрах. При видимости от 1 до 10 км при отсутствии осадков обычно наблюдается дымка, при ухудшении видимости до 1 км и менее - туман. В сухую погоду видимость может ухудшаться дымом, пылью или мглою.
Явления - указаны атмосферные явления, наблюдавшиеся в срок или в последний час перед сроком; фигурными скобками обозначены явления, наблюдавшиеся между сроками (за 1-3 часа до срока); квадратными скобками обозначены град или гололедные отложения с указанием их диаметра в мм.
Облачность - указаны через наклонную черту общая и нижняя облачность в баллах и высота нижней границы облаков в метрах; квадратными скобками обозначены формы облаков: Ci - перистые, Cs - перисто-слоистые, Cc - перисто-кучевые, Ac - высококучевые, As - высокослоистые, Sc - слоисто-кучевые, Ns - слоисто-дождевые, Cu - кучевые, Cb - кучево-дождевые. Подробнее классификацию облаков см. в Атласе облаков (PDF).
T - Температура воздуха - температура, измеренная на высоте 2 м над землей.
Td - Температура точки росы - температура, при понижении до которой содержащийся в воздухе водяной пар достигнет насыщения.
f - Относительная влажность воздуха - влажноcть воздуха, измеренная на высоте 2 м над землей.
Te - Эффективная температура - температура, которую ощущает одетый по сезону человек в тени. Характеристика душности погоды. При расчете учитывается влияние влажности воздуха и скорости ветра на теплоощущения человека.
Tes - Эффективная температура на солнце - температура, которую ощущает человек, с поправкой на солнечный нагрев. Характеристика знойности погоды. Зависит от высоты солнца над горизонтом, облачности и скорости ветра. Ночью, в пасмурную погоду, а также при ветре 12 м/с и более поправка равна нулю.
P - Атмосферное давление - приведенное к уровню моря атмосферное давление.
Po - Атмосферное давление - измеренное на уровне метеостанции атмосферное давление.
Tmin - Минимальная температура - минимум температуры воздуха на высоте 2 м над землей.
Tmax - Максимальная температура - максимум температуры воздуха на высоте 2 м над землей.
R - Количество осадков - Количество выпавших осадков за период времени, мм. При наведении курсора мыши на число - период времени, за который выпало указанное количество осадков.
R24 - Количество осадков - Количество выпавших осадков за 24 часа, мм.
S - Снежный покров - Высота снежного покрова, см. При наведении курсора мыши на число - состояние снежного покрова и степень покрытия местности в баллах.